| time (UTC) | temp F | wind direction | speed MPH | gust MPH | rain 1hr in | rain 24hr in | rain mn in | humidity % | barometer mb |
| 20260509113118 | 52 | 205 | 5.0 | 11.0 | 0.00 | 0.01 | 0.00 | 92 | 1006.5 |
| 20260509111516 | 52 | 218 | 4.0 | 8.0 | 0.00 | 0.01 | 0.00 | 92 | 1006.4 |
| 20260509110016 | 53 | 223 | 3.0 | 6.0 | 0.00 | 0.01 | 0.00 | 91 | 1006.2 |
| 20260509104514 | 52 | 209 | 2.0 | 8.0 | 0.00 | 0.01 | 0.00 | 91 | 1006.1 |
| 20260509103014 | 52 | 217 | 3.0 | 9.0 | 0.00 | 0.01 | 0.00 | 91 | 1005.8 |
| 20260509101515 | 52 | 220 | 2.0 | 6.0 | 0.00 | 0.01 | 0.00 | 92 | 1005.9 |
| 20260509100012 | 53 | 218 | 2.0 | 6.0 | 0.00 | 0.01 | 0.00 | 92 | 1005.9 |
| 20260509094511 | 53 | 216 | 3.0 | 9.0 | 0.00 | 0.01 | 0.00 | 91 | 1005.9 |
| 20260509093008 | 53 | 219 | 3.0 | 6.0 | 0.00 | 0.01 | 0.00 | 91 | 1006.1 |
| 20260509091506 | 53 | 219 | 1.0 | 5.0 | 0.00 | 0.01 | 0.00 | 92 | 1006.1 |
| 20260509090006 | 53 | 221 | 2.0 | 5.0 | 0.00 | 0.01 | 0.00 | 92 | 1006.2 |
| 20260509084508 | 54 | 221 | 2.0 | 6.0 | 0.00 | 0.01 | 0.00 | 92 | 1006.2 |
| 20260509083004 | 53 | 232 | 3.0 | 8.0 | 0.00 | 0.01 | 0.00 | 91 | 1006.1 |
| 20260509081501 | 54 | 208 | 4.0 | 7.0 | 0.00 | 0.01 | 0.00 | 91 | 1006.2 |
| 20260509080110 | 54 | 212 | 4.0 | 7.0 | 0.00 | 0.01 | 0.00 | 91 | 1006.3 |
| 20260509074600 | 54 | 210 | 3.0 | 8.0 | 0.00 | 0.01 | 0.00 | 91 | 1006.3 |
| 20260509073136 | 55 | 213 | 2.0 | 5.0 | 0.00 | 0.01 | 0.00 | 91 | 1006.3 |
| 20260509071555 | 55 | 213 | 5.0 | 11.0 | 0.00 | 0.01 | 0.00 | 90 | 1006.2 |
| 20260509070059 | 55 | 208 | 4.0 | 7.0 | 0.00 | 0.01 | 0.00 | 91 | 1006.3 |
| 20260509064551 | 55 | 207 | 2.0 | 6.0 | 0.00 | 0.01 | 0.00 | 91 | 1006.7 |
| 20260509063048 | 55 | 209 | 4.0 | 9.0 | 0.00 | 0.01 | 0.00 | 91 | 1006.9 |
| 20260509061555 | 54 | 211 | 4.0 | 7.0 | 0.00 | 0.01 | 0.00 | 91 | 1007.1 |
| 20260509060052 | 54 | 191 | 4.0 | 6.0 | 0.00 | 0.01 | 0.00 | 90 | 1007.2 |
| 20260509054548 | 54 | 193 | 3.0 | 7.0 | 0.00 | 0.01 | 0.00 | 90 | 1007.2 |
| 20260509053040 | 54 | 187 | 3.0 | 7.0 | 0.00 | 0.01 | 0.00 | 89 | 1007.2 |
| 20260509050035 | 54 | 217 | 0.0 | 1.0 | 0.00 | 0.01 | 0.01 | 88 | 1007.2 |
| 20260509044538 | 55 | 217 | 0.0 | 3.0 | 0.00 | 0.01 | 0.01 | 87 | 1007.1 |
| 20260509043037 | 55 | 217 | 0.0 | 4.0 | 0.00 | 0.01 | 0.01 | 86 | 1007.2 |
| 20260509041533 | 56 | 217 | 0.0 | 4.0 | 0.00 | 0.01 | 0.01 | 85 | 1007.1 |
| 20260509040036 | 56 | 217 | 0.0 | 4.0 | 0.00 | 0.01 | 0.01 | 85 | 1007.3 |
| 20260509034543 | 57 | 217 | 2.0 | 7.0 | 0.00 | 0.01 | 0.01 | 84 | 1007.5 |
| 20260509033032 | 57 | 302 | 0.0 | 6.0 | 0.00 | 0.01 | 0.01 | 84 | 1007.6 |
| 20260509031531 | 57 | 286 | 0.0 | 1.0 | 0.00 | 0.01 | 0.01 | 84 | 1007.7 |
| 20260509030030 | 57 | 290 | 0.0 | 4.0 | 0.00 | 0.01 | 0.01 | 84 | 1007.7 |
| 20260509024530 | 57 | 286 | 1.0 | 3.0 | 0.00 | 0.01 | 0.01 | 84 | 1007.6 |
| 20260509023029 | 57 | 279 | 1.0 | 7.0 | 0.00 | 0.01 | 0.01 | 85 | 1007.6 |
| 20260509021534 | 56 | 248 | 2.0 | 5.0 | 0.00 | 0.01 | 0.01 | 85 | 1007.6 |
| 20260509020028 | 57 | 211 | 2.0 | 7.0 | 0.00 | 0.01 | 0.01 | 85 | 1007.7 |
| 20260509014529 | 56 | 227 | 2.0 | 7.0 | 0.00 | 0.01 | 0.01 | 85 | 1007.6 |
| 20260509013028 | 56 | 215 | 2.0 | 8.0 | 0.00 | 0.01 | 0.01 | 85 | 1007.4 |
| 20260509011527 | 56 | 222 | 3.0 | 7.0 | 0.00 | 0.01 | 0.01 | 85 | 1007.3 |
| 20260509010034 | 57 | 232 | 2.0 | 4.0 | 0.00 | 0.01 | 0.01 | 83 | 1007.2 |
| 20260509004527 | 57 | 236 | 2.0 | 6.0 | 0.00 | 0.01 | 0.01 | 83 | 1007.1 |
| 20260509003024 | 57 | 217 | 0.0 | 7.0 | 0.00 | 0.01 | 0.01 | 83 | 1007.2 |
| 20260509001522 | 57 | 210 | 4.0 | 11.0 | 0.00 | 0.01 | 0.01 | 83 | 1007.5 |
| 20260509000022 | 57 | 227 | 8.0 | 15.0 | 0.00 | 0.01 | 0.01 | 83 | 1007.6 |
| 20260508234521 | 58 | 213 | 6.0 | 11.0 | 0.00 | 0.01 | 0.01 | 82 | 1007.5 |
| 20260508233020 | 58 | 229 | 3.0 | 9.0 | 0.00 | 0.01 | 0.01 | 83 | 1007.6 |
| 20260508231518 | 57 | 207 | 6.0 | 12.0 | 0.00 | 0.01 | 0.01 | 85 | 1007.9 |
| 20260508230022 | 58 | 192 | 5.0 | 13.0 | 0.00 | 0.01 | 0.01 | 84 | 1008.0 |
| 20260508224518 | 59 | 214 | 4.0 | 11.0 | 0.00 | 0.01 | 0.01 | 82 | 1008.0 |
| 20260508223034 | 59 | 220 | 4.0 | 10.0 | 0.00 | 0.01 | 0.01 | 82 | 1008.0 |
| 20260508221515 | 59 | 213 | 7.0 | 14.0 | 0.00 | 0.01 | 0.01 | 81 | 1008.0 |
| 20260508214514 | 60 | 217 | 7.0 | 13.0 | 0.00 | 0.01 | 0.01 | 79 | 1008.0 |
| 20260508213016 | 60 | 205 | 5.0 | 10.0 | 0.00 | 0.01 | 0.01 | 79 | 1007.9 |
| 20260508211514 | 60 | 174 | 5.0 | 8.0 | 0.00 | 0.01 | 0.01 | 78 | 1007.9 |
| 20260508210013 | 60 | 215 | 4.0 | 7.0 | 0.00 | 0.02 | 0.01 | 77 | 1007.9 |
| 20260508204521 | 59 | 175 | 4.0 | 7.0 | 0.00 | 0.02 | 0.01 | 79 | 1007.8 |
| 20260508203011 | 59 | 189 | 3.0 | 8.0 | 0.00 | 0.02 | 0.01 | 78 | 1007.8 |
| 20260508201506 | 59 | 205 | 3.0 | 6.0 | 0.00 | 0.02 | 0.01 | 78 | 1008.5 |
| 20260508200008 | 60 | 201 | 3.0 | 6.0 | 0.00 | 0.02 | 0.01 | 76 | 1008.9 |
| 20260508194506 | 60 | 221 | 4.0 | 6.0 | 0.01 | 0.02 | 0.01 | 72 | 1008.8 |
| 20260508193003 | 60 | 315 | 3.0 | 8.0 | 0.01 | 0.02 | 0.01 | 73 | 1009.1 |
| 20260508191505 | 61 | 292 | 0.0 | 1.0 | 0.01 | 0.02 | 0.01 | 75 | 1009.3 |
| 20260508190002 | 61 | 300 | 2.0 | 5.0 | 0.01 | 0.02 | 0.01 | 73 | 1009.3 |
| 20260508184609 | 61 | 288 | 2.0 | 7.0 | 0.00 | 0.01 | 0.00 | 72 | 1009.5 |
| 20260508183100 | 63 | 221 | 2.0 | 6.0 | 0.00 | 0.01 | 0.00 | 67 | 1009.4 |
| 20260508181605 | 64 | 271 | 2.0 | 5.0 | 0.00 | 0.01 | 0.00 | 63 | 1009.3 |
| 20260508180059 | 63 | 232 | 2.0 | 8.0 | 0.00 | 0.01 | 0.00 | 65 | 1009.4 |
| 20260508174559 | 64 | 248 | 2.0 | 10.0 | 0.00 | 0.01 | 0.00 | 60 | 1009.7 |
| 20260508173055 | 64 | 227 | 5.0 | 11.0 | 0.00 | 0.01 | 0.00 | 60 | 1009.9 |
| 20260508171551 | 66 | 222 | 3.0 | 9.0 | 0.00 | 0.01 | 0.00 | 58 | 1010.0 |
| 20260508170049 | 65 | 243 | 6.0 | 13.0 | 0.00 | 0.01 | 0.00 | 58 | 1010.3 |
| 20260508164548 | 64 | 209 | 2.0 | 8.0 | 0.00 | 0.01 | 0.00 | 66 | 1010.3 |
| 20260508163049 | 64 | 218 | 3.0 | 9.0 | 0.00 | 0.01 | 0.00 | 64 | 1010.3 |
| 20260508161546 | 64 | 208 | 5.0 | 14.0 | 0.00 | 0.01 | 0.00 | 63 | 1010.3 |
| 20260508160145 | 64 | 195 | 7.0 | 17.0 | 0.00 | 0.01 | 0.00 | 62 | 1010.4 |
| 20260508153046 | 63 | 212 | 9.0 | 14.0 | 0.00 | 0.01 | 0.00 | 63 | 1010.6 |
| 20260508151546 | 64 | 208 | 6.0 | 11.0 | 0.00 | 0.01 | 0.00 | 63 | 1010.7 |
| 20260508150040 | 64 | 241 | 6.0 | 13.0 | 0.00 | 0.01 | 0.00 | 63 | 1010.7 |
| 20260508144535 | 62 | 252 | 7.0 | 15.0 | 0.00 | 0.01 | 0.00 | 65 | 1010.9 |
| 20260508143042 | 61 | 202 | 9.0 | 16.0 | 0.00 | 0.01 | 0.00 | 67 | 1011.0 |
| 20260508141541 | 60 | 195 | 5.0 | 12.0 | 0.00 | 0.01 | 0.00 | 68 | 1011.0 |
| 20260508140028 | 58 | 207 | 6.0 | 13.0 | 0.00 | 0.01 | 0.00 | 71 | 1011.0 |
| 20260508134530 | 55 | 218 | 5.0 | 12.0 | 0.00 | 0.01 | 0.00 | 73 | 1011.1 |
| 20260508133021 | 55 | 211 | 6.0 | 11.0 | 0.00 | 0.01 | 0.00 | 74 | 1011.1 |
| 20260508131521 | 53 | 211 | 4.0 | 9.0 | 0.00 | 0.01 | 0.00 | 76 | 1011.3 |
| 20260508130022 | 52 | 207 | 5.0 | 8.0 | 0.00 | 0.01 | 0.00 | 77 | 1011.4 |
| 20260508124520 | 52 | 189 | 4.0 | 7.0 | 0.00 | 0.01 | 0.00 | 77 | 1011.4 |
| 20260508123020 | 51 | 194 | 2.0 | 6.0 | 0.00 | 0.01 | 0.00 | 77 | 1011.6 |
| 20260508121547 | 51 | 235 | 0.0 | 5.0 | 0.00 | 0.01 | 0.00 | 78 | 1011.7 |
| 20260508120018 | 51 | 253 | 2.0 | 4.0 | 0.00 | 0.01 | 0.00 | 78 | 1011.8 |
| 20260508114517 | 50 | 262 | 0.0 | 0.0 | 0.00 | 0.01 | 0.00 | 79 | 1011.8 |